P/2003 U3 ( NEAT )

Japanese version
Home page
Updated on April 3, 2004

---------------------------------------------------------------------

* Profile

Discovery Date October 22, 2003
Magnitude 18.9 mag
Discoverer Near-Earth-Asteroid Tracking Team (Jet Propulsion Laboratory)

* Orbital Elements

Epoch 2003 May 1.0 TT = JDT 2452760.5
T 2003 Apr. 22.97613 TT                                 MPC
q   2.4952485            (2000.0)            P               Q
n   0.08593151     Peri.  356.20493     +0.96411226     +0.26434155
a   5.0858991      Node   348.37698     -0.24024242     +0.82898844
e   0.5093791      Incl.    7.04784     -0.11300939     +0.49285059
P  11.47

* Finding Charts

* Magnitudes Graph

        m1 = 12.5 + 5 log d + 10.0 log r

---------------------------------------------------------------------

The orbital elements are published on M.P.E.C. 2004-A11.
The charts are made with StellaNavigator Ver.2.0 for Windows (AstroArts / ASCII).
The magnitudes graphs are made with Comet for Windows.

---------------------------------------------------------------------

Copyright(C) Seiichi Yoshida (comet@aerith.net). All rights reserved.